Вернуться в каталог

COSMOS 1275 DEB

АктивенPO
NORAD 12748·DEBRIS·🇷🇺 Russia

Запущен Jun 4, 1981 с Plesetsk Cosmodrome

Loading…

Ближайшие Пролёты (ближайшие 24 часа)

TLE

СвежийSource: Space-Track

Эпоха: Sep 14, 2026, 21:48 UTC

1 12748U 81053CR  26257.90874521  .00000174  00000-0  16451-3 0  9999
2 12748  82.9870 308.8452 0045337  64.6720 116.5915 13.74993972258709

Отслеживайте COSMOS 1275 DEB в реальном времени с AllMySat

Download on the App Store